STARLINK-35501

Last updated on Fri Dec 12 2025 00:02:05 GMT+0000 (Coordinated Universal Time)

1 66436U 25259Q 25345.58335648 .00111073 00000+0 26356-2 0 9995 2 66436 43.0001 54.3225 0001271 274.5561 274.3590 15.40608888 6090
UTC large
Height (km)
Speed (km/s)
/
Latitude / Longitude
Inclination (degrees)
Orbital Period (minutes)
Azimuth
Elevation
Range (km)
Doppler Factor

Next 0 passes for location: London (51.5072 / 0.1276)

Sorry there are no passes over London.